OE5WWO Weather Reports


time (UTC)temp
C
wind
direction
speed
KPH
gust
KPH
rain 1hr
cm
rain 24hr
cm
rain mn
cm
humidity
%
barometer
mb
20260507061040 13 226 1.6 4.8 0.00 0.00 0.00 74 1013.0
20260507060538 13 283 1.6 6.4 0.00 0.00 0.00 73 1013.0
20260507060059 13 317 1.6 6.4 0.00 0.00 0.00 75 1013.0
20260507055540 12 279 1.6 6.4 0.00 0.00 0.00 76 1012.9
20260507055039 12 325 1.6 6.4 0.00 0.00 0.00 77 1012.9
20260507054554 12 315 1.6 4.8 0.00 0.00 0.00 77 1012.9
20260507054042 12 274 0.0 4.8 0.00 0.00 0.00 77 1012.9
20260507053542 12 0 0.0 4.8 0.00 0.00 0.00 78 1012.9
20260507053052 12 300 0.0 4.8 0.00 0.00 0.00 78 1012.8
20260507052544 12 311 0.0 6.4 0.00 0.00 0.00 80 1012.8
20260507052040 11 322 0.0 8.0 0.00 0.00 0.00 80 1012.7
20260507051553 11 324 0.0 8.0 0.00 0.00 0.00 80 1012.5
20260507051041 11 0 1.6 4.8 0.00 0.00 0.00 80 1012.5
20260507050540 11 0 0.0 3.2 0.00 0.00 0.00 81 1012.5
20260507050053 11 286 0.0 3.2 0.00 0.00 0.00 81 1012.4
20260507045542 11 0 0.0 3.2 0.00 0.00 0.00 81 1012.4
20260507045039 11 0 0.0 3.2 0.00 0.00 0.00 81 1012.3
20260507044605 11 273 0.0 3.2 0.00 0.00 0.00 81 1012.2
20260507044040 11 0 0.0 3.2 0.00 0.00 0.00 81 1012.2
20260507043540 11 313 0.0 3.2 0.00 0.00 0.00 81 1012.1
20260507043102 11 309 0.0 3.2 0.00 0.00 0.00 81 1012.1
20260507042541 11 0 0.0 3.2 0.00 0.00 0.00 81 1012.1
20260507042044 11 0 0.0 3.2 0.00 0.00 0.00 81 1012.0
20260507041557 11 0 0.0 4.8 0.00 0.00 0.00 81 1011.9
20260507041041 11 0 0.0 4.8 0.00 0.00 0.00 81 1011.8
20260507040540 11 304 0.0 4.8 0.00 0.00 0.00 80 1011.8
20260507040054 11 0 0.0 1.6 0.00 0.00 0.00 80 1011.8
20260507035539 11 0 0.0 1.6 0.00 0.00 0.00 80 1011.8
20260507035039 11 0 0.0 1.6 0.00 0.00 0.00 79 1011.7
20260507034554 11 0 0.0 3.2 0.00 0.00 0.00 79 1011.6
20260507034040 11 0 0.0 3.2 0.00 0.00 0.00 79 1011.5
20260507033540 11 0 0.0 3.2 0.00 0.00 0.00 79 1011.6
20260507033052 11 0 0.0 3.2 0.00 0.00 0.00 79 1011.5
20260507032540 11 0 0.0 3.2 0.00 0.00 0.00 79 1011.5
20260507032039 11 0 0.0 3.2 0.00 0.00 0.00 79 1011.5
20260507031554 11 0 0.0 4.8 0.00 0.00 0.00 79 1011.5
20260507031039 11 0 0.0 4.8 0.00 0.00 0.00 79 1011.4
20260507030539 11 269 0.0 4.8 0.00 0.00 0.00 79 1011.3
20260507030049 11 302 0.0 4.8 0.00 0.00 0.00 79 1011.3
20260507025540 11 211 0.0 6.4 0.00 0.00 0.00 79 1011.2
20260507025040 11 0 0.0 6.4 0.00 0.00 0.00 80 1011.2
20260507024553 11 318 0.0 4.8 0.00 0.00 0.00 80 1011.2
20260507024040 11 242 0.0 4.8 0.00 0.00 0.00 80 1011.2
20260507023540 11 0 0.0 9.7 0.00 0.00 0.00 80 1011.2
20260507023103 11 215 0.0 9.7 0.00 0.00 0.00 80 1011.2
20260507022540 11 0 0.0 9.7 0.00 0.00 0.00 80 1011.1
20260507022040 11 0 3.2 9.7 0.00 0.00 0.00 80 1011.1
20260507021550 11 0 0.0 9.7 0.00 0.00 0.00 80 1011.1
20260507021040 11 0 0.0 9.7 0.00 0.00 0.00 80 1011.2
20260507020540 11 0 0.0 6.4 0.00 0.00 0.00 80 1011.2
20260507020059 11 0 0.0 3.2 0.00 0.00 0.00 80 1011.1
20260507015539 11 263 0.0 8.0 0.00 0.00 0.00 80 1011.1
20260507015040 11 0 0.0 8.0 0.00 0.00 0.00 80 1011.1
20260507014546 12 0 0.0 8.0 0.00 0.00 0.00 80 1011.1
20260507014040 12 0 0.0 4.8 0.00 0.00 0.00 80 1011.0
20260507013541 12 0 0.0 4.8 0.00 0.00 0.00 79 1011.0
20260507013047 12 312 0.0 4.8 0.00 0.00 0.00 80 1011.0
20260507012546 12 0 0.0 0.0 0.00 0.00 0.00 80 1011.0
20260507012040 12 0 0.0 1.6 0.00 0.00 0.00 80 1011.0
20260507011548 12 0 0.0 3.2 0.00 0.00 0.00 80 1011.0
20260507011039 12 0 0.0 9.7 0.00 0.00 0.00 80 1011.0
20260507010540 12 0 0.0 9.7 0.00 0.00 0.00 80 1011.0
20260507010051 12 144 3.2 9.7 0.00 0.00 0.00 80 1010.9
20260507005540 12 0 1.6 6.4 0.00 0.00 0.00 80 1010.9
20260507005041 12 257 0.0 6.4 0.00 0.00 0.00 80 1010.9
20260507004551 12 0 0.0 9.7 0.00 0.00 0.00 80 1010.9
20260507004039 12 251 1.6 9.7 0.00 0.00 0.00 80 1010.8
20260507003541 12 254 1.6 8.0 0.00 0.00 0.00 80 1010.7
20260507003106 12 213 1.6 8.0 0.00 0.00 0.00 80 1010.7
20260507002545 12 233 1.6 8.0 0.00 0.00 0.00 79 1010.7
20260507002042 12 307 1.6 8.0 0.00 0.00 0.00 79 1010.7
20260507001609 12 0 0.0 8.0 0.00 0.00 0.00 79 1010.6
20260507001041 12 293 1.6 11.3 0.00 0.00 0.00 79 1010.7
20260507000543 12 291 1.6 11.3 0.00 0.00 0.00 80 1010.8
20260507000047 12 232 1.6 12.9 0.00 0.00 0.00 80 1010.8
20260506235540 12 0 3.2 12.9 0.00 0.00 0.00 79 1010.8
20260506235039 12 0 0.0 6.4 0.00 0.00 0.00 79 1010.8
20260506234551 12 286 1.6 9.7 0.00 0.00 0.00 79 1010.8
20260506234040 12 331 3.2 9.7 0.00 0.00 0.00 79 1010.8
20260506233540 12 0 0.0 4.8 0.00 0.00 0.00 79 1010.7
20260506233052 12 240 0.0 9.7 0.00 0.00 0.00 79 1010.7
20260506232539 12 202 0.0 9.7 0.00 0.00 0.00 79 1010.7
20260506232040 12 157 1.6 9.7 0.00 0.00 0.00 79 1010.7
20260506231554 12 0 1.6 9.7 0.00 0.00 0.00 79 1010.6
20260506231040 12 280 1.6 8.0 0.00 0.00 0.00 79 1010.7
20260506230540 12 269 0.0 16.1 0.00 0.00 0.00 79 1010.7
20260506230107 12 219 0.0 16.1 0.00 0.00 0.00 79 1010.6
20260506225557 12 264 3.2 20.9 0.00 0.00 0.00 79 1010.6
20260506225040 12 221 3.2 20.9 0.00 0.00 0.00 78 1010.3
20260506224548 13 288 4.8 16.1 0.00 0.00 0.00 78 1010.2
20260506224039 13 207 4.8 14.5 0.00 0.00 0.00 78 1010.1
20260506223541 13 188 3.2 14.5 0.00 0.00 0.00 79 1009.8
20260506223049 13 277 3.2 14.5 0.00 0.00 0.00 79 1009.8
20260506222540 13 198 4.8 16.1 0.00 0.00 0.00 79 1009.9
20260506222040 13 210 3.2 16.1 0.00 0.00 0.00 79 1009.7
20260506221603 13 235 1.6 14.5 0.00 0.00 0.00 80 1009.7
20260506221039 13 203 1.6 14.5 0.00 0.00 0.00 81 1009.6
20260506220539 13 201 3.2 12.9 0.00 0.00 0.00 81 1009.5
20260506220055 13 0 0.0 11.3 0.00 0.00 0.00 81 1009.4
20260506215542 13 351 1.6 12.9 0.00 0.00 0.00 80 1009.3
20260506215040 13 279 1.6 14.5 0.00 0.00 0.00 80 1009.3
20260506214555 13 250 3.2 14.5 0.00 0.00 0.00 81 1009.2
20260506214040 13 145 1.6 11.3 0.00 0.00 0.00 81 1009.2
20260506213540 13 0 1.6 14.5 0.00 0.00 0.00 81 1009.2
20260506213050 13 259 3.2 14.5 0.00 0.00 0.00 81 1009.2
20260506212540 13 269 1.6 12.9 0.00 0.00 0.00 81 1009.2
20260506212040 13 202 1.6 14.5 0.00 0.00 0.00 82 1009.1
20260506211548 13 271 4.8 14.5 0.00 0.00 0.00 82 1009.0
20260506211039 14 188 1.6 12.9 0.00 0.00 0.00 83 1009.0
20260506210540 14 0 3.2 14.5 0.00 0.00 0.00 83 1008.8
20260506210058 14 271 4.8 19.3 0.00 0.00 0.00 84 1008.8
20260506205541 14 299 3.2 19.3 0.00 0.00 0.00 84 1008.7
20260506205039 14 295 4.8 19.3 0.00 0.00 0.00 84 1008.6
20260506204547 14 280 1.6 14.5 0.00 0.00 0.00 85 1008.3
20260506204038 14 261 3.2 14.5 0.00 0.00 0.00 85 1008.3
20260506203540 14 0 1.6 14.5 0.00 0.00 0.00 86 1008.3
20260506203102 14 279 1.6 14.5 0.00 0.00 0.00 86 1008.2
20260506202541 14 277 3.2 14.5 0.00 0.00 0.00 86 1008.0
20260506202040 14 194 4.8 12.9 0.00 0.00 0.00 86 1008.0
20260506201549 14 160 1.6 14.5 0.00 0.00 0.00 85 1007.9
20260506201040 14 244 3.2 14.5 0.00 0.00 0.00 85 1007.7
20260506200539 15 0 3.2 14.5 0.00 0.00 0.00 84 1007.6
20260506200056 15 263 3.2 9.7 0.00 0.00 0.00 83 1007.6
20260506195537 15 221 1.6 14.5 0.00 0.08 0.00 82 1007.4
20260506195037 15 297 3.2 17.7 0.00 0.08 0.00 80 1007.1
20260506194554 15 0 3.2 19.3 0.00 0.08 0.00 78 1007.0
20260506194038 16 225 3.2 19.3 0.00 0.08 0.00 75 1006.9
20260506193543 16 212 4.8 14.5 0.00 0.08 0.00 73 1006.8
20260506193105 16 266 1.6 16.1 0.00 0.08 0.00 69 1006.7
20260506192540 16 281 3.2 16.1 0.00 0.08 0.00 67 1006.4
20260506192040 17 325 4.8 16.1 0.00 0.08 0.00 64 1006.3
20260506191552 17 210 3.2 9.7 0.00 0.08 0.00 62 1005.9
20260506191037 17 263 1.6 16.1 0.00 0.08 0.00 61 1005.4
20260506190538 17 245 3.2 24.1 0.00 0.08 0.00 60 1005.3
20260506190054 17 360 4.8 24.1 0.00 0.08 0.00 60 1004.7
20260506185537 17 322 4.8 22.5 0.00 0.30 0.00 61 1004.5
20260506185040 17 327 6.4 22.5 0.00 0.30 0.00 62 1004.6
20260506184557 17 330 6.4 22.5 0.00 0.30 0.00 63 1004.7
20260506184038 17 304 3.2 27.4 0.00 0.30 0.00 63 1004.6
20260506183544 17 242 4.8 27.4 0.00 0.30 0.00 63 1004.4
20260506183103 18 302 3.2 16.1 0.00 0.30 0.00 62 1004.3
20260506182541 18 352 4.8 19.3 0.00 0.30 0.00 61 1004.0
20260506182042 19 328 4.8 19.3 0.00 0.30 0.00 57 1003.8
20260506181555 20 250 4.8 22.5 0.00 0.30 0.00 53 1003.7
20260506181040 21 304 6.4 22.5 0.00 0.30 0.00 50 1003.5
20260506180543 22 350 6.4 22.5 0.00 0.30 0.00 45 1003.5
20260506180053 22 0 0.0 8.0 0.00 0.30 0.00 42 1002.8
20260506175540 22 0 1.6 8.0 0.00 0.30 0.00 41 1002.6
20260506175040 22 160 3.2 8.0 0.00 0.30 0.00 41 1002.5
20260506174552 22 192 0.0 8.0 0.00 0.30 0.00 42 1002.2
20260506174040 22 160 1.6 8.0 0.00 0.30 0.00 42 1002.1
20260506173540 22 101 1.6 8.0 0.00 0.30 0.00 41 1002.1
20260506173106 22 0 0.0 4.8 0.00 0.30 0.00 41 1002.0
20260506172538 22 0 0.0 4.8 0.00 0.30 0.00 41 1001.7
20260506172041 23 0 1.6 4.8 0.00 0.30 0.00 40 1001.4
20260506171551 23 182 0.0 6.4 0.00 0.30 0.00 40 1001.3
20260506171040 23 174 0.0 6.4 0.00 0.30 0.00 39 1001.2
20260506170540 23 42 1.6 8.0 0.00 0.30 0.00 40 1001.1
20260506170104 23 138 3.2 9.7 0.00 0.30 0.00 39 1001.0
20260506165543 23 0 1.6 9.7 0.00 0.30 0.00 39 1001.1
20260506165040 24 101 1.6 11.3 0.00 0.30 0.00 39 1001.2
20260506164603 24 205 4.8 11.3 0.00 0.30 0.00 38 1001.3
20260506164039 24 111 3.2 9.7 0.00 0.30 0.00 38 1001.4
20260506163540 24 5 1.6 9.7 0.00 0.30 0.00 38 1001.6
20260506163056 24 0 1.6 9.7 0.00 0.30 0.00 39 1001.6
20260506162543 24 165 0.0 9.7 0.00 0.30 0.00 40 1001.6
20260506162041 24 126 1.6 9.7 0.00 0.30 0.00 39 1001.7
20260506161554 24 151 0.0 6.4 0.00 0.30 0.00 40 1001.7
20260506161038 24 0 1.6 6.4 0.00 0.30 0.00 39 1001.8
20260506160537 24 180 0.0 11.3 0.00 0.30 0.00 40 1001.8
20260506160111 24 169 1.6 14.5 0.00 0.30 0.00 39 1001.9
20260506155540 24 119 3.2 14.5 0.00 0.30 0.00 39 1001.9
20260506155037 24 52 1.6 12.9 0.00 0.30 0.00 42 1002.1
20260506154556 24 326 1.6 12.9 0.00 0.30 0.00 43 1002.2
20260506154040 24 96 3.2 12.9 0.00 0.30 0.00 43 1002.2
20260506153544 24 70 3.2 8.0 0.00 0.30 0.00 43 1002.2
20260506153054 24 100 3.2 8.0 0.00 0.30 0.00 44 1002.3
20260506152540 24 212 1.6 8.0 0.00 0.30 0.00 44 1002.4
20260506152043 24 73 1.6 9.7 0.00 0.30 0.00 45 1002.4
20260506151556 23 0 1.6 11.3 0.00 0.30 0.00 46 1002.5
20260506151036 24 69 1.6 11.3 0.00 0.30 0.00 44 1002.5
20260506150539 24 315 0.0 6.4 0.00 0.30 0.00 46 1002.6
20260506145538 23 76 1.6 9.7 0.00 0.30 0.00 43 1002.6
20260506145040 24 73 1.6 8.0 0.00 0.30 0.00 43 1002.7
20260506144552 23 98 0.0 6.4 0.00 0.30 0.00 44 1002.8
20260506144037 23 0 1.6 6.4 0.00 0.30 0.00 43 1002.9
20260506143537 23 80 1.6 8.0 0.00 0.30 0.00 44 1002.9
20260506143053 23 85 1.6 8.0 0.00 0.30 0.00 42 1003.0
20260506142540 23 72 3.2 8.0 0.00 0.30 0.00 43 1003.0
20260506142039 23 86 3.2 8.0 0.00 0.30 0.00 43 1003.2
20260506141550 23 328 1.6 6.4 0.00 0.30 0.00 43 1003.1
20260506141040 23 27 0.0 6.4 0.00 0.30 0.00 43 1003.2
20260506140540 23 71 0.0 4.8 0.00 0.30 0.00 43 1003.2
20260506140055 23 71 0.0 11.3 0.00 0.30 0.00 42 1003.3
20260506135540 23 74 1.6 14.5 0.00 0.30 0.00 43 1003.5
20260506135039 24 42 6.4 17.7 0.00 0.30 0.00 40 1003.5
20260506134556 24 70 8.0 17.7 0.00 0.30 0.00 39 1003.5
20260506134042 25 68 3.2 11.3 0.00 0.30 0.00 40 1003.5
20260506133540 25 71 3.2 14.5 0.00 0.30 0.00 39 1003.5
20260506133107 25 200 1.6 16.1 0.00 0.30 0.00 41 1003.7
20260506132540 25 69 6.4 16.1 0.00 0.30 0.00 39 1003.8
20260506132043 25 89 4.8 12.9 0.00 0.30 0.00 39 1003.8
20260506131614 25 85 3.2 9.7 0.00 0.30 0.00 40 1003.9
20260506131042 25 0 3.2 9.7 0.00 0.30 0.00 42 1004.0
20260506130540 24 81 1.6 9.7 0.00 0.30 0.00 41 1004.0
20260506130054 24 84 1.6 8.0 0.00 0.30 0.00 41 1004.2
20260506125539 24 98 1.6 14.5 0.00 0.30 0.00 41 1004.2
20260506125039 24 74 3.2 14.5 0.00 0.30 0.00 42 1004.3
20260506124553 24 98 3.2 11.3 0.00 0.30 0.00 43 1004.3
20260506124039 23 138 3.2 11.3 0.00 0.30 0.00 43 1004.4
20260506123542 23 267 0.0 14.5 0.00 0.30 0.00 46 1004.4
20260506123054 23 88 3.2 14.5 0.00 0.30 0.00 44 1004.6
20260506122540 23 63 3.2 14.5 0.00 0.30 0.00 44 1004.6
20260506122041 23 98 3.2 14.5 0.00 0.30 0.00 44 1004.8
20260506121557 23 74 4.8 12.9 0.00 0.30 0.00 44 1004.8
20260506121040 23 77 3.2 12.9 0.00 0.30 0.00 43 1005.0
20260506120540 24 173 1.6 11.3 0.00 0.30 0.00 45 1005.0
20260506115539 23 348 1.6 14.5 0.00 0.30 0.00 51 1005.1
20260506115040 22 73 3.2 14.5 0.00 0.30 0.00 48 1005.2
20260506114554 22 80 3.2 12.9 0.00 0.30 0.00 48 1005.3
20260506114038 22 65 3.2 12.9 0.00 0.30 0.00 47 1005.3
20260506113540 23 80 4.8 9.7 0.00 0.30 0.00 47 1005.4
20260506113054 23 154 1.6 11.3 0.00 0.30 0.00 51 1005.5
20260506112540 23 68 3.2 11.3 0.00 0.30 0.00 47 1005.5
20260506112040 23 90 0.0 4.8 0.00 0.30 0.00 52 1005.6
20260506111548 22 341 1.6 6.4 0.00 0.30 0.00 55 1005.6
20260506111040 22 285 0.0 8.0 0.00 0.30 0.00 53 1005.7
20260506110540 22 55 1.6 8.0 0.00 0.30 0.00 53 1005.8
20260506110101 22 330 1.6 8.0 0.00 0.30 0.00 58 1005.8
20260506105540 21 236 0.0 8.0 0.00 0.30 0.00 56 1005.9
20260506105042 21 0 0.0 9.7 0.00 0.30 0.00 60 1005.9
20260506104603 21 300 3.2 9.7 0.00 0.30 0.00 59 1006.1
20260506104040 21 218 3.2 9.7 0.00 0.30 0.00 62 1006.2
20260506103540 20 351 0.0 8.0 0.00 0.30 0.00 63 1006.3
20260506103050 20 81 0.0 6.4 0.00 0.30 0.00 61 1006.4
20260506102542 20 115 0.0 6.4 0.00 0.30 0.00 61 1006.5
20260506102042 20 0 1.6 6.4 0.00 0.30 0.00 63 1006.6
20260506101549 20 0 0.0 4.8 0.00 0.30 0.00 62 1006.8
20260506101044 20 329 1.6 8.0 0.00 0.30 0.00 64 1006.8
20260506100540 20 336 1.6 9.7 0.00 0.30 0.00 63 1006.9
20260506100058 20 325 3.2 9.7 0.00 0.30 0.00 64 1006.9
20260506095539 20 290 1.6 8.0 0.00 0.30 0.00 66 1006.9
20260506095036 20 330 3.2 8.0 0.00 0.30 0.00 66 1007.0
20260506094550 19 338 0.0 4.8 0.00 0.30 0.00 65 1007.1
20260506094040 19 0 0.0 4.8 0.00 0.30 0.00 64 1007.1
20260506093540 19 321 1.6 4.8 0.00 0.30 0.00 67 1007.1
20260506093051 19 318 0.0 8.0 0.00 0.30 0.00 66 1007.2
20260506092540 19 0 3.2 12.9 0.00 0.30 0.00 67 1007.2
20260506092040 19 0 1.6 12.9 0.00 0.30 0.00 67 1007.2
20260506091549 19 297 0.0 4.8 0.00 0.30 0.00 68 1007.3
20260506091040 19 0 0.0 4.8 0.00 0.30 0.00 69 1007.3
20260506090540 19 348 0.0 4.8 0.00 0.30 0.00 69 1007.4
20260506090048 19 0 0.0 6.4 0.00 0.30 0.00 67 1007.4
20260506085539 18 293 1.6 6.4 0.00 0.30 0.00 69 1007.5
20260506085039 18 0 0.0 6.4 0.00 0.30 0.00 68 1007.5
20260506084615 18 314 0.0 4.8 0.00 0.30 0.00 70 1007.6
20260506084039 18 65 0.0 4.8 0.00 0.30 0.00 70 1007.6
20260506083538 18 305 1.6 4.8 0.00 0.30 0.00 71 1007.7
20260506083049 18 209 0.0 6.4 0.00 0.30 0.00 71 1007.6
20260506082541 18 0 0.0 6.4 0.00 0.30 0.00 70 1007.7
20260506082039 18 42 1.6 6.4 0.00 0.30 0.00 71 1007.6
20260506081554 18 82 3.2 6.4 0.00 0.30 0.00 70 1007.7
20260506081040 18 0 1.6 6.4 0.00 0.30 0.00 70 1007.7
20260506080540 17 5 1.6 6.4 0.00 0.30 0.00 69 1007.6
20260506073047 16 32 1.6 9.7 0.00 0.30 0.00 80 1007.7
20260506072539 16 50 3.2 9.7 0.00 0.30 0.00 79 1007.9
20260506072039 16 71 3.2 8.0 0.00 0.30 0.00 81 1007.9
20260506071551 16 63 1.6 8.0 0.00 0.30 0.00 80 1007.9
20260506071039 16 77 1.6 6.4 0.00 0.30 0.00 79 1007.9
20260506070540 16 74 0.0 3.2 0.00 0.30 0.00 82 1007.9
20260506062039 15 333 0.0 4.8 0.00 0.30 0.00 82 1008.3
20260506061554 15 5 0.0 6.4 0.00 0.30 0.00 84 1008.2